Flag for China Weather past 2 weeks in Guangzhou, Guangdong, China

Now
52 °F

Overcast.


Feels Like: 49 °F
Forecast: 54 / 69 °F
Wind: 8 mph from Northeast

Location: Canton Airport

Current Time: Feb 1, 2015 at 9:29:06 AM

Latest Report: Feb 1, 2015 at 8:30 AM


Visibility: N/A

Pressure: 30.39 "Hg

Humidity: 67%

Dew point: 41 °F

Location of GuangzhouLocation

Historic Weather in Guangzhou — Graph

°F

Guangzhou temperature yesterday

Maximum temperature yesterday: 59 °F (at 2:30 PM)
Minimum temperature yesterday: 48 °F (at 4:00 AM)
Average temperature yesterday: 53 °F

Past Weeks' High & Low Weather Summary

 TemperatureHumidityPressure
High75 °F (Jan 21, 2:00 PM)100% (Jan 26, 2:30 AM)30.39 "Hg (Jan 26, 2:30 AM)
Low46 °F (Jan 20, 7:00 AM)20% (Jan 22, 2:30 PM)29.95 "Hg (Jan 27, 4:00 PM)
Average61 °F64%30.15 "Hg
* Reported Jan 17 8:00 AM — Feb 1 8:30 AM, Guangzhou, Weather by CustomWeather, © 2014

Note: Actual official high and low records may vary slightly from our data, if they occured in-between our weather recording intervals... More about our weather records

Advertising

Guangzhou weather history for previous 24 hours

 ConditionsComfort  
Time TempWeatherWind HumidityBarometerVisibility
8:30 AM
Feb 1
52 °FOvercast.8 mph67%30.39 "HgN/A
8:00 AM52 °FOvercast.8 mph67%30.39 "HgN/A
7:30 AM52 °FOvercast.6 mph67%30.36 "HgN/A
7:00 AM52 °FOvercast.6 mph67%30.36 "HgN/A
6:30 AM52 °FOvercast.3 mph72%30.33 "HgN/A
6:00 AM52 °FOvercast.3 mph72%30.33 "HgN/A
5:30 AM52 °FOvercast.1 mph72%30.33 "HgN/A
4:30 AM52 °FOvercast.6 mph67%30.33 "HgN/A
4:00 AM52 °FOvercast.8 mph67%30.33 "HgN/A
3:30 AM52 °FOvercast.10 mph67%30.33 "HgN/A
3:00 AM52 °FOvercast.10 mph67%30.33 "HgN/A
2:30 AM54 °FOvercast.10 mph63%30.33 "HgN/A
2:00 AM54 °FOvercast.6 mph63%30.33 "HgN/A
1:30 AM54 °FOvercast.8 mph63%30.33 "HgN/A
1:00 AM54 °FOvercast.10 mph63%30.33 "HgN/A
12:30 AM54 °FOvercast.10 mph63%30.33 "HgN/A
12:00 AM54 °FOvercast.8 mph63%30.36 "HgN/A
11:30 PM
Jan 31
54 °FOvercast.10 mph63%30.33 "HgN/A
11:00 PM54 °FOvercast.10 mph63%30.36 "HgN/A
10:30 PM54 °FOvercast.10 mph63%30.33 "HgN/A
10:00 PM54 °FOvercast.8 mph67%30.33 "HgN/A
9:30 PM54 °FOvercast.8 mph67%30.33 "HgN/A
9:00 PM55 °FOvercast.8 mph63%30.33 "HgN/A
8:30 PM54 °FOvercast.8 mph67%30.33 "HgN/A
8:00 PM55 °FOvercast.10 mph63%30.30 "HgN/A
7:30 PM55 °FOvercast.8 mph63%30.30 "HgN/A
7:00 PM55 °FOvercast.8 mph63%30.30 "HgN/A
6:30 PM55 °FOvercast.8 mph63%30.30 "HgN/A
6:00 PM55 °FOvercast.10 mph63%30.30 "HgN/A
5:30 PM55 °FPartly sunny.13 mph63%30.30 "HgN/A
5:00 PM57 °FPartly sunny.10 mph59%30.27 "HgN/A
4:30 PM57 °FPartly sunny.10 mph59%30.27 "HgN/A
4:00 PM57 °FPartly sunny.6 mph59%30.27 "HgN/A
3:30 PM59 °FPartly sunny.6 mph55%30.27 "HgN/A
3:00 PM59 °FPartly sunny.3 mph55%30.30 "HgN/A
2:30 PM59 °FPartly sunny.3 mph55%30.30 "HgN/A
2:00 PM57 °FPartly sunny.3 mph59%30.30 "HgN/A
1:30 PM57 °FPartly sunny.1 mph55%30.33 "HgN/A
1:00 PM55 °FPartly sunny.6 mph59%30.33 "HgN/A
12:30 PM55 °FPartly sunny.6 mph59%30.36 "HgN/A
12:00 PM55 °FPartly sunny.6 mph59%30.36 "HgN/A
11:00 AM54 °FPartly sunny.8 mph63%30.39 "HgN/A
10:30 AM54 °FPartly sunny.8 mph58%30.39 "HgN/A
10:00 AM54 °FPartly sunny.8 mph63%30.39 "HgN/A
9:30 AM52 °FPartly sunny.8 mph62%30.39 "HgN/A
9:00 AM52 °FPartly sunny.8 mph62%30.36 "HgN/A
Weather by CustomWeather, © 2014

See weather overviewHow to use our weather pages